loading
DOY 198 | 2024-07-16T12:48:03Z
Showing default

LEMUR 2 MMOLO, 55038

Orbit data source: Space-Track

LEMUR 2 MMOLO, 55038 is a payload satellite owned by Spire/Lux (US) in LEO that was launched on Tue, 03 Jan 2023 UTC via a Falcon 9 launch vehicle from the Air Force Eastern Test Range (AFETR). Payloads include a variety of satellites, spacecraft, and rockets equipped with specific instruments for various scientific and technological missions. These include communications satellites like Starlink; space stations such as the ISS; scientific satellites like the Hubble; Earth observation satellites from companies like Planet Labs, Umbra, and HawkEye 360; GPS; miniature CubeSats for education and research; and military/defense satellites.

Loading next visibility...
Loading greatness...
LEMUR 2 MMOLO details
NORAD ID55038
COSPAR ID
2023-001AF
Orbit
LEO
Last TLE update9 hours ago
Origin
Flag of USSpire/Lux (US)
ManufacturerSpire/Glasgow
BusCubesat 3U
MotorUnknown
Mass4.6 kg wet, 4.6 kg dry
Launch date (UTC)
2023-01-03 (2 years ago)
Launch vehicle
Falcon 9
Launch site
Air Force Eastern Test Range (AFETR)
Object type
Payload
Rocket body
Debris
Radar Cross SectionSmall (<0.1 m²)
Predictive object data (real-time)
Latitude35.85471°
Longitude-83.79989°
Altitude423.002 km
Speed7.664 km/s
Apparent Right ascension15h 32m 37s
Apparent Declination0° 40' 54"
Sunlit
Object is in full shadow
Predictive observer data (real-time)
Local Sidereal Time01:26:59
Azimuth315.937° NNW
Elevation-41.466°
Doppler factor1
Orbital elements
Apogee425.015 km
Perigee414.787 km
Semi-major axis6,798.038 km
Eccentricity0.0007523
Inclination97.4281°
RAAN265.6867°
Arg. of periapsis59.6866°
True anomaly300.4384°
Mean anomaly300.5127°
Mean motion3.87229 °/min
BSTAR0.0015595
Period92.97 mins
Definitive object data (Epoch: 2024-07-16T03:20:12.774Z)
Latitude-0.00006°
Longitude-78.82872°
Altitude423.503 km
Speed7.659 km/s
True Right ascension17h 42m 44s
True Declination0° 00' 00"
Sunlit
Object was in full shadow at TLE epoch
TLE from 9 hours ago
0 LEMUR 2 MMOLO
1 55038U 23001AF  24198.13903674  .00081838  00000-0  15595-2 0  9999
2 55038  97.4281 265.6867 0007523  59.6866 300.5127 15.47865647 85555
Epoch: 2024-07-16T03:20Z
No data available

LEMUR 2 MMOLO Visibility forecast

Observer location: 39.9160978°, -105.1181434

LEMUR 2 MMOLO is not visible in the next 10 days
Span
Click to sort rows by Start time (UTC) header in descending order
Start Az.
Max El. time (UTC)
Max El. Az.
Max El.
End time (UTC)
End Az.